Other Public Products
Issued by NWS Grand Forks, ND

Home | Current Version | Previous Version | Text Only | Print | Product List | Glossary On
Versions: 1 2 3 4 5 6 7 8 9 10 11 12 13 14 15 16 17 18 19 20 21 22 23 24 25 26 27 28 29 30 31 32 33 34 35 36 37 38 39 40 41 42 43 44 45 46 47 48 49 50
000
FPUS83 KFGF 041031
OPUFGF
PRAIRIE TO PINES WEATHER ROUNDUP
NATIONAL WEATHER SERVICE EASTERN NORTH DAKOTA/GRAND FORKS ND
500 AM CDT SAT JUL 04 2015

 **SATELLITE DATA USED TO AUGMENT SKY COVER AT AUTOMATED STATIONS**
 *****  WEATHER ACROSS EASTERN NORTH DAKOTA  *****

CITY           SKY/WX    TMP DP  RH WIND       PRES   REMARKS
GRAND FORKS    CLOUDY    59  57  93 S6        29.87F FOG
GRAND FORKS AF CLEAR     59  58  94 S5        29.88S FOG
GRAND CITY NWS   N/A     63 N/A N/A S3          N/A
BUXTON         NOT AVBL
DEVILS LAKE    CLEAR     66  59  77 S5        29.85F
FARGO          CLEAR     65  60  84 SE6       29.89F HAZE
WAHPETON ARPT    N/A     59  57  94 CALM      29.91S
$$

 *****  WEATHER ACROSS CENTRAL AND WESTERN NORTH DAKOTA  *****

CITY           SKY/WX    TMP DP  RH WIND       PRES   REMARKS
JAMESTOWN      CLOUDY    66  63  90 S6        29.89S FOG
BISMARCK       PTCLDY    64  63  96 E6        29.86S FOG
MINOT          CLEAR     63  60  90 CALM      29.80F FOG
MINOT AFB      CLEAR     64  64 100 SE6       29.80S
GARRISON         N/A     64  62  93 SE5       29.83F
WILLISTON      CLEAR     70  61  73 S3        29.79F HAZE
DICKINSON      PTCLDY    63  59  87 S8        29.83F FOG
HETTINGER      PTCLDY    63  59  87 SE7       29.88F FOG
$$

 *****  OTHER OBSERVATIONS NORTHEAST NORTH DAKOTA  *****

CITY           SKY/WX    TMP DP  RH WIND       PRES   REMARKS
WALHALLA       FAIR      66  64  94 MISG      29.85S FOG
LANGDON        FAIR      63  61  94 S10       29.87F FOG
CAVALIER       FAIR      61  59  94 S7        29.86S FOG
GRAFTON        FAIR      59  59 100 S5        29.87F FOG
CANDO          FAIR      63  61  94 S6        29.85F FOG
FORT TOTTEN    NOT AVBL
ROLLA          CLOUDY    59  59 100 S6        29.87S FOG
RUGBY          NOT AVBL
 ***** THE ABOVE OBSERVATIONS ARE NON NWS ARE NOT QUALITY
        CONTROLLED AND MAY MIS-REPORT RAIN FOR SNOW...
$$

 *****  OTHER OBSERVATIONS SOUTHEAST NORTH DAKOTA *****

CITY           SKY/WX    TMP DP  RH WIND       PRES   REMARKS
COOPERSTOWN    NOT AVBL
VALLEY CITY    CLOUDY    63  63 100 S6        29.90S FOG
OAKES            N/A     63  63 100 S7        29.90S FOG
GWINNER          N/A     64  64 100 SW5       29.91S
SHEYENNE NWR     N/A     61  61  99 CALM      29.95S
BUFFALO        NOT AVBL
WYNDMERE       NOT AVBL
 ***** THE ABOVE OBSERVATIONS ARE NON NWS ARE NOT QUALITY
       CONTROLLED AND MAY MIS-REPORT RAIN FOR SNOW...
$$

  *****  WEATHER ACROSS NORTHERN MINNESOTA  *****

CITY           SKY/WX    TMP DP  RH WIND       PRES   REMARKS
FLAG ISLAND    CLEAR     68  61  77 S8        29.89S
WARROAD        CLEAR     61  57  88 S6        29.91S
ROSEAU         CLEAR     57  54  88 CALM      29.89S
HALLOCK        CLEAR     57  55  94 SE7       29.87S FOG
THF RVR FALLS  CLEAR     57  55  94 SE5       29.91S
HALSTAD        NOT AVBL
FOSSTON        CLEAR     55  52  88 CALM      29.93S HAZE
BAUDETTE       CLEAR     56  52  86 SE5       29.92S
WASKISH        CLEAR     54  52  94 E3        29.93S FOG
CROOKSTON      CLEAR     59  57  94 SE6       29.90S FOG
$$
  *****  WEATHER ACROSS CENTRAL AND WEST MINNESOTA  *****

CITY           SKY/WX    TMP DP  RH WIND       PRES   REMARKS
BEMIDJI        FOG       51  51  99 CALM      29.94S VSB 1/2
PARK RAPIDS    CLOUDY    56  54  93 CALM      29.94S FOG
WADENA         FOG       55  54  94 CALM      29.94S VSB 1/4
DETROIT LAKES  CLEAR     61  59  94 CALM      29.94S FOG
MOORHEAD       CLEAR     63  61  94 SE6       29.91S FOG
FERGUS FALLS   CLEAR     66  63  88 SE5       29.92S FOG
ELBOW LAKE     FAIR      64  62  93 SE5       29.92S FOG
MORRIS MN      FOG       61  61 100 CALM      29.92S VSB<1/4
STAPLES        MOCLDY    55  55 100 CALM      29.94S FOG
WHEATON        CLEAR     57  57 100 SE5       29.93S FOG
$$
  *****  WEATHER ELSEWHERE ACROSS MINNESOTA  *****

CITY           SKY/WX    TMP DP  RH WIND       PRES   REMARKS
DULUTH         CLEAR     60  54  80 E3        29.95S
INTRNTL FALLS  CLEAR     46  45  96 CALM      29.94R
ELY            MOCLDY    46  45  93 CALM      29.97S FOG
CLOQUET        CLEAR     54  50  87 CALM      29.95S
BRAINERD       FOG       54  53  97 CALM      29.95R VSB 1/4
HIBBING        CLEAR     47  46  97 CALM      29.96R FOG
ALEXANDRIA     CLEAR     63  60  90 E3        29.95S FOG
SAINT CLOUD    FOG       58  57  97 CALM      29.93S VSB 3/4
MINNEAPOLIS    MOCLDY    66  60  81 CALM      29.94R
$$

  *****  WEATHER ACROSS SOUTH DAKOTA  *****

CITY           SKY/WX    TMP DP  RH WIND       PRES   REMARKS
SIOUX FALLS    CLEAR     63  59  87 SW3       29.97S
BROOKINGS      CLEAR     61  57  88 S5        29.97F
WATERTOWN      PTCLDY    64  61  90 S6        29.95S FOG
HURON          CLEAR     63  62  97 SE6       29.91F FOG
SISSETON         N/A     61  59  93 S3        29.90F
ABERDEEN       CLEAR     63  62  97 S6        29.90S FOG
MITCHELL       CLEAR     64  63  96 SE7       29.94F FOG
PIERRE         PTCLDY    63  61  93 E3        29.88F
MOBRIDGE       PTCLDY    67  67 100 SE7       29.86S FOG
RAPID CITY     MOCLDY    63  59  87 E6        29.89F
$$

  *****  SOME WEATHER IN NEARBY STATES *****

CITY           SKY/WX    TMP DP  RH WIND       PRES   REMARKS
GLASGOW MT     CLEAR     65  55  70 E10       29.73F
GREAT FALLS MT CLEAR     60  46  59 SW9       29.83S
CHEYENNE WY    MOCLDY    60  54  80 E6        30.07F
SCOTTSBLUFF NE MOCLDY    67  60  78 E8        29.96S
OMAHA NE       CLEAR     57  57 100 NW5       29.99S FOG
DES MOINES IA  PTCLDY    62  55  77 CALM      29.98S
DAVENPORT IA   CLEAR     56  54  93 CALM      29.98S FOG
CHICAGO IL     CLEAR     60  54  80 W6        29.95S
EAU CLAIRE WI  CLEAR     61  56  83 CALM      29.93R
LA CROSSE WI   CLOUDY    63  61  93 SE3       29.95R
$$

  *****  SOME NATIONAL WEATHER *****

CITY           SKY/WX    TMP DP  RH WIND       PRES   REMARKS
LA GUARDIA NY  CLOUDY    70  59  68 E7        29.94F
RALEIGH NC     PTCLDY    70  68  93 SW6       29.94R
ATLANTA GA     CLOUDY    68  65  90 S6        30.03F
NEW ORLEANS LA MOCLDY    79  73  82 S7        30.02S
OKLAHOMA CITY  PTCLDY    70  68  93 SE7       29.94F
ALBUQUERQUE NM MOCLDY    72  55  55 E3        30.14S
SALT LAKE CITY MOCLDY    82  49  31 SE8       29.90R
LOS ANGELES CA CLOUDY    62  59  90 CALM      29.88F
BOISE ID       MOCLDY    77  38  24 S7        29.82R
SEATTLE WA     CLEAR     63  54  72 S5        29.90S
$$

*** WEATHER ACROSS MANITOBA...SASKATCHEWAN AND ONTARIO ***
                ***ONTARIO***

CITY           SKY/WX    TMP DP  RH WIND       PRES   REMARKS
GERALDTON      PTCLDY    46  46 100 NW3       29.94R
THUNDER BAY    PTCLDY    50  50 100 W3        29.95R
SIOUX LOOKOUT  MOCLDY    54  54 100 SE2       29.94R
TORONTO        PTCLDY    54  45  71 N6        29.92S
BIG TROUT LK   CLEAR     54  48  82 S8        29.90S
PICKLE LAKE    NOT AVBL
DRYDEN         CLEAR     59  54  82 S9        29.93S
KENORA         PTCLDY    63  57  82 S6        29.91
$$
                *** MANITOBA***

CITY           SKY/WX    TMP DP  RH WIND       PRES   REMARKS
BRANDON        CLEAR     55  55 100 NE6       29.81F SMOKE
DAUPHIN        CLEAR     70  63  78 SW12G17   29.73F HAZE
ISLAND LAKE    PTCLDY    64  50  59 S10       29.73F
PILOT MOUND      N/A     59  57  94 S8          N/A
THE PAS        CLOUDY    64  61  88 S6        29.64F SMOKE
THOMPSON       CLOUDY    61  59  94 E3        29.60F SMOKE
WINNIPEG       CLEAR     63  59  88 S8        29.84F SMOKE
LYNN LAKE      MOCLDY    61  59  94 W14       29.56R FOG
CHURCHILL      LGT RAIN  45  43  93 E25G36    29.74F
$$
                ***SASKATCHEWAN***

CITY           SKY/WX    TMP DP  RH WIND       PRES   REMARKS
ESTEVAN        CLEAR     64  63  94 S7        29.77F
KINDERSLEY     MOCLDY    63  57  82 N15       29.82S
LLOYDMINSTER   CLOUDY    61  46  59 SW6       29.83S
PRINCE ALBERT  MOCLDY    61  55  82 W5        29.73R
REGINA         CLOUDY    64  64 100 E9        29.76F
YORKTON        FOG       64  63  94 W3        29.74R VSB 1


USA.gov is the U.S. government's official web portal to all federal, state and local government web resources and services.